Weather in Razdolnoe

Ukraine / Kherson District     46°09′30″N   33°14′01″E
temp.,
°C
wind,
m/s
gust,
m/s
humid.,
%
clouds,
%
prec.,
mm/h
press.,
hPa
HPBL,
m
11 may, tue
tue1100:00+11nw35555 0.0 1020106
03:00+9wnw410609 0.0 1019173
06:00+11nw61357100 0.0 1017489
09:00+13nnw796289 0.0 1016576
12:00+17nnw795897 0.0 1015972
15:00+18n7961100 0.0 10141219
18:00+16ne5671100 0.0 1014770
21:00+13ne368792 0.8 1014197
12 may, wed
wed1200:00+11e367399 0.0 1015170
03:00+7ene34811 0.0 101443
06:00+7ne238140 0.0 101453
09:00+11ne226560 0.0 1014457
12:00+16sse114763 0.0 10131705
15:00+16sw224796 0.0 10131434
18:00+17e124582 0.0 10121457
21:00+10ese347315 0.0 101348
13 may, thu
thu1300:00+10e33926 0.0 101333
03:00+10ene349744 0.0 101271
06:00+10e3598100 0.0 1012110
09:00+16ese456997 0.0 1012620
12:00+20ese5652100 0.0 10111013
15:00+21ese56535 0.0 10111037
18:00+19e676498 0.0 1010381
21:00+14ese599193 0.0 1010179
14 may, fri
fri1400:00+13sw3486100 0.0 101062
03:00+12sw339050 0.0 101037
06:00+12s12883 0.0 101011
09:00+18ssw225862 0.0 1010434
12:00+22s3343100 0.0 1010632
15:00+23ssw3439100 0.0 1010695
18:00+20wsw55535 0.0 1010310
21:00+14sw33775 0.0 101132
15 may, sat
sat1500:00+13sw47901 0.0 1011139
03:00+14wsw410954 0.0 1011255
06:00+14sw369451 0.0 1012126
09:00+18sw5676100 0.0 1013399
12:00+19sw576729 0.0 1014455
15:00+22sw68510 0.0 1014869
18:00+19sw59610 0.0 1014457
21:00+14sw35873 0.0 101477